sat.trackr.live / text

‹ back to catalog

SHERPA-AC1

NORAD 52763 · 2022-057AH

PAYLOAD ACTIVE UNKNOWN

§ Identity

Operator
Country
US
Launch date
2022-05-25
Launch site
AFETR
Launch vehicle
Mass (kg)
RCS (m²)

External: N2YO · Heavens-Above · Gunter

§ Orbital elements

Epoch: 2026-05-25T03:16:58.770048Z

Period
93.76 min
Inclination
97.6657°
Eccentricity
0.0008113
Mean motion
15.35887739 rev/d
Perigee alt
452.7 km
Apogee alt
463.8 km
Semi-major
6,836.4 km
B*
2.1449e-4
RAAN
293.4132°
Arg perigee
165.0481°
Mean anomaly
195.1003°
Rev number
22,216

§ Raw data

SHERPA-AC11 52763U 22057AH  26145.13679132  .00007412  00000+0  21449-3 0  99952 52763  97.6657 293.4132 0008113 165.0481 195.1003 15.35887739222165

JSON: /api/v1/satellites/52763 · /tle

For live sub-satellite position, see the globe view (requires WebGL).

§ Visibility from observer

Set your observer location to see the next 7 days of passes ≥ 10°. The values pass through the URL so the page stays shareable.

No JS? Fill the form by hand. The geolocation button needs JavaScript.

§ Radio — SatNOGS DB

ModeDescriptionDownlinkUplink
FM GNSS - Xona Huginn 1.260 GHz
FM Mode L 1.616 GHz
FM Mode S 2.245 GHz
FM UHF Unknown 400.500 MHz

4 transmitters · refreshed weekly from db.satnogs.org